Regional Weather Roundup
Issued by NWS

Home | Current Version | Previous Version | Graphics & Text | Print | Product List | Glossary On
Versions: 1 2 3 4 5 6 7 8 9 10 11 12 13 14 15 16 17 18 19 20 21 22 23 24 25 26 27 28 29 30 31 32 33 34 35 36 37 38 39 40 41 42 43 44 45 46 47 48 49 50
186
ASUS45 KBOI 200410
RWRID

IDAHO REGIONAL WEATHER ROUNDUP
NATIONAL WEATHER SERVICE BOISE ID
1000 PM MDT THU OCT 19 2017

NOTE: "FAIR" INDICATES FEW OR NO CLOUDS BELOW 12000 FEET
WITH NO SIGNIFICANT WEATHER AND/OR OBSTRUCTIONS TO VISIBILITY

IDZ012-014-200500-
SOUTHWEST IDAHO


CITY           SKY/WX    TMP DP  RH WIND       PRES   REMARKS
BOISE          CLOUDY    63  16  16 S10       29.57S
CALDWELL       CLOUDY    60  25  26 E7        29.53F
MOUNTAIN HOME  MOCLDY    58  15  18 SE6       29.59F
$$

IDZ016-017-200500-
SOUTHCENTRAL IDAHO


CITY           SKY/WX    TMP DP  RH WIND       PRES   REMARKS
BURLEY         PTCLDY    59  16  18 SW15      29.67F
JEROME         CLEAR     54  25  32 SE8       29.66F
TWIN FALLS     CLEAR     55  23  28 S12       29.66F
$$

IDZ019>023-200500-
SOUTHEAST IDAHO


CITY           SKY/WX    TMP DP  RH WIND       PRES   REMARKS
IDAHO FALLS    CLEAR     45  26  47 SW5       29.74F
POCATELLO      CLEAR     63  15  15 S17G26    29.70F
REXBURG        CLEAR     57  18  21 S14G21    29.74F
$$

IDZ006-010-011-018-031-032-200500-
CENTRAL IDAHO MOUNTAINS


CITY           SKY/WX    TMP DP  RH WIND       PRES   REMARKS
MCCALL         MOCLDY    54  14  20 SE7       29.59F
HAILEY         PTCLDY    45  19  36 NW9       29.74F
STANLEY          N/A     42  16  34 SE3       29.72F
SALMON         CLEAR     51  20  29 SE5       29.57F
CHALLIS        CLEAR     53  16  23 SE7       29.64F
$$

IDZ002-004-006-007-026-200500-
NORTHERN IDAHO


CITY           SKY/WX    TMP DP  RH WIND       PRES   REMARKS
LEWISTON       CLOUDY    56  41  57 SE6       29.49F
LOWELL           N/A     48  46  93 N3        29.48F
COEUR D`ALENE  CLOUDY    51  44  77 CALM      29.51F
MULLAN PASS    MOCLDY    38  27  64 W8        29.55F WCI  32
$$




USA.gov is the U.S. government's official web portal to all federal, state and local government web resources and services.